Crosby, ND

12:27 AM CDT on October 23, 2019 (GMT -0500)
Crosby

Weather History for KD50 - September, 2019

Change the Weather History Date:

Friday, September 20, 2019

  Actual Average (WUND) Record (WUND)
Temperature  
Mean Temperature 62 °F -  
Max Temperature 68 °F - - (-1)
Min Temperature 55 °F - - (-1)
Degree Days  
Heating Degree Days 4    
Growing Degree Days 12 (Base 50)    
Moisture  
Dew Point 60 °F    
Average Humidity 95    
Maximum Humidity 100    
Minimum Humidity 78    
Precipitation  
Precipitation 0.00 in - - ()
Sea Level Pressure  
Sea Level Pressure 29.77 in    
Wind  
Wind Speed 9 mph (North)    
Max Wind Speed 23 mph    
Max Gust Speed 22 mph    
Visibility 9 miles    
Events Rain , Thunderstorm    
Averages and records for this station are not official NWS values.
T = Trace of Precipitation, MM = Missing Value Source: NWS Daily Summary

Daily Weather History Graph

Daily Weather History Graph

Search for Another Location

Airport or City:

Astronomy

Sep. 20, 2019 Rise Set
Actual Time 7:36 AM CDT 7:55 PM CDT
Civil Twilight 7:05 AM CDT 8:27 PM CDT
Nautical Twilight 6:27 AM CDT 9:04 PM CDT
Astronomical Twilight 5:48 AM CDT 9:43 PM CDT
Moon 11:16 PM CDT (9/20) 2:13 PM CDT (9/20)
Length of Visible Light 13h 22m
Length of Day
12h 19m
Waning Gibbous, 65% of the Moon is Illuminated
Sep 20
Waning Gibbous
Sep 21
Last Quarter
Sep 28
New
Oct 5
First Quarter
Oct 13
Full

Hourly Weather History & Observations

Time (CDT) Temp. Dew Point Humidity Pressure Visibility Wind Dir Wind Speed Gust Speed Precip Events Conditions
12:15 AM 62.6 °F 62.6 °F 100% 29.80 in 10.0 mi Variable 3.5 mph - N/A Thunderstorm Mostly Cloudy
12:35 AM 62.6 °F 62.6 °F 100% 29.80 in 10.0 mi East 5.8 mph - N/A Thunderstorm Overcast
12:55 AM 62.6 °F 62.6 °F 100% 29.79 in 8.0 mi NE 9.2 mph - N/A Thunderstorm Overcast
1:15 AM 62.6 °F 62.6 °F 100% 29.78 in 10.0 mi East 8.1 mph - N/A   Overcast
1:35 AM 62.6 °F 62.6 °F 100% 29.79 in 10.0 mi North 11.5 mph 18.4 mph N/A Thunderstorm Thunderstorm
1:55 AM 62.6 °F 62.6 °F 100% 29.79 in 10.0 mi NNE 8.1 mph 13.8 mph N/A   Overcast
2:15 AM 62.6 °F 62.6 °F 100% 29.79 in 10.0 mi NE 5.8 mph - N/A Thunderstorm Overcast
2:35 AM 62.6 °F 62.6 °F 100% 29.78 in 10.0 mi ENE 6.9 mph - N/A Thunderstorm Overcast
2:55 AM 60.8 °F 60.8 °F 100% 29.82 in 8.0 mi North 23.0 mph - N/A Thunderstorm Overcast
3:15 AM 57.2 °F 57.2 °F 100% 29.83 in 1.8 mi North 15.0 mph 21.9 mph N/A Rain , Thunderstorm Rain
3:35 AM 57.2 °F 57.2 °F 100% 29.80 in 4.0 mi NNE 11.5 mph 17.3 mph N/A Thunderstorm Overcast
3:55 AM 57.2 °F 57.2 °F 100% 29.80 in 4.0 mi NE 11.5 mph - N/A Thunderstorm Overcast
4:15 AM 59.0 °F 59.0 °F 100% 29.80 in 7.0 mi NNE 5.8 mph - N/A   Overcast
4:35 AM 59.0 °F 59.0 °F 100% 29.78 in 4.0 mi East 9.2 mph - N/A   Overcast
4:55 AM 57.2 °F 57.2 °F 100% 29.76 in 9.0 mi East 11.5 mph - N/A   Overcast
5:15 AM 57.2 °F 57.2 °F 100% 29.75 in 10.0 mi ESE 12.7 mph 18.4 mph N/A   Mostly Cloudy
5:35 AM 57.2 °F 57.2 °F 100% 29.73 in 10.0 mi ESE 12.7 mph 20.7 mph N/A   Overcast
5:55 AM 57.2 °F 57.2 °F 100% 29.73 in 10.0 mi ESE 11.5 mph - N/A   Overcast
6:15 AM 57.2 °F 57.2 °F 100% 29.73 in 10.0 mi East 10.4 mph - N/A   Overcast
6:35 AM 57.2 °F 57.2 °F 100% 29.74 in 10.0 mi ESE 8.1 mph - N/A   Overcast
6:55 AM 57.2 °F 57.2 °F 100% 29.73 in 10.0 mi East 4.6 mph - N/A   Mostly Cloudy
7:15 AM 57.2 °F 57.2 °F 100% 29.73 in 10.0 mi ESE 4.6 mph - N/A   Partly Cloudy
7:35 AM 55.4 °F 55.4 °F 100% 29.75 in 10.0 mi WSW 4.6 mph - N/A   Clear
7:55 AM 55.4 °F 55.4 °F 100% 29.73 in 10.0 mi Calm Calm - N/A   Clear
8:15 AM 55.4 °F 55.4 °F 100% 29.76 in 10.0 mi WNW 8.1 mph - N/A   Clear
8:35 AM 57.2 °F 57.2 °F 100% 29.77 in 10.0 mi WNW 8.1 mph - N/A   Mostly Cloudy
8:55 AM 59.0 °F 59.0 °F 100% 29.77 in 10.0 mi NW 8.1 mph - N/A   Overcast
9:15 AM 59.0 °F 59.0 °F 100% 29.80 in 10.0 mi NW 9.2 mph 15.0 mph N/A   Overcast
9:35 AM 59.0 °F 59.0 °F 100% 29.83 in 10.0 mi NW 15.0 mph - N/A   Overcast
9:55 AM 60.8 °F 60.8 °F 100% 29.83 in 10.0 mi NNW 9.2 mph 15.0 mph N/A   Overcast
10:15 AM 60.8 °F 60.8 °F 100% 29.82 in 10.0 mi NW 9.2 mph - N/A   Overcast
10:35 AM 60.8 °F 60.8 °F 100% 29.80 in 10.0 mi NNW 9.2 mph - N/A   Overcast
10:55 AM 62.6 °F 62.6 °F 100% 29.80 in 10.0 mi NNW 10.4 mph - N/A Thunderstorm Partly Cloudy
11:15 AM 64.4 °F 62.6 °F 94% 29.79 in 10.0 mi NNW 9.2 mph - N/A   Clear
11:35 AM 64.4 °F 62.6 °F 94% 29.77 in 10.0 mi NNE 8.1 mph - N/A   Partly Cloudy
11:55 AM 64.4 °F 62.6 °F 94% 29.78 in 10.0 mi Calm Calm - N/A   Mostly Cloudy
12:15 PM 64.4 °F 62.6 °F 94% 29.78 in 9.0 mi North 3.5 mph - N/A   Mostly Cloudy
12:35 PM 64.4 °F 62.6 °F 94% 29.78 in 10.0 mi NW 6.9 mph - N/A   Mostly Cloudy
12:55 PM 64.4 °F 64.4 °F 100% 29.75 in 10.0 mi NE 8.1 mph - N/A   Partly Cloudy
1:15 PM 64.4 °F 64.4 °F 100% 29.74 in 8.0 mi NE 10.4 mph - N/A   Clear
1:35 PM 68.0 °F 62.6 °F 83% 29.75 in 9.0 mi North 9.2 mph - N/A   Scattered Clouds
1:55 PM 64.4 °F 62.6 °F 94% 29.75 in 9.0 mi NNW 16.1 mph - N/A   Overcast
2:15 PM 62.6 °F 62.6 °F 100% 29.75 in 9.0 mi NNW 17.3 mph - N/A   Overcast
2:35 PM 62.6 °F 60.8 °F 94% 29.76 in 9.0 mi NNW 18.4 mph - N/A   Mostly Cloudy
2:55 PM 64.4 °F 60.8 °F 88% 29.76 in 9.0 mi NNW 17.3 mph - N/A   Mostly Cloudy
3:15 PM 64.4 °F 60.8 °F 88% 29.77 in 10.0 mi NNW 17.3 mph - N/A   Mostly Cloudy
3:35 PM 62.6 °F 59.0 °F 88% 29.77 in 10.0 mi NW 15.0 mph - N/A   Scattered Clouds
3:55 PM 62.6 °F 59.0 °F 88% 29.78 in 10.0 mi NW 17.3 mph - N/A   Mostly Cloudy
4:15 PM 64.4 °F 59.0 °F 83% 29.78 in 10.0 mi NW 13.8 mph - N/A   Mostly Cloudy
4:35 PM 64.4 °F 60.8 °F 88% 29.77 in 10.0 mi NNW 15.0 mph - N/A   Mostly Cloudy
4:55 PM 66.2 °F 59.0 °F 78% 29.76 in 10.0 mi North 13.8 mph - N/A   Partly Cloudy
5:15 PM 66.2 °F 59.0 °F 78% 29.76 in 10.0 mi North 12.7 mph - N/A   Clear
5:35 PM 66.2 °F 59.0 °F 78% 29.76 in 10.0 mi North 10.4 mph - N/A   Mostly Cloudy
5:55 PM 66.2 °F 59.0 °F 78% 29.76 in 10.0 mi North 9.2 mph - N/A   Mostly Cloudy
6:15 PM 66.2 °F 59.0 °F 78% 29.76 in 10.0 mi NNW 10.4 mph - N/A   Mostly Cloudy
6:35 PM 66.2 °F 59.0 °F 78% 29.76 in 10.0 mi North 10.4 mph - N/A   Overcast
6:55 PM 66.2 °F 59.0 °F 78% 29.75 in 10.0 mi North 10.4 mph - N/A   Overcast
7:15 PM 64.4 °F 59.0 °F 83% 29.74 in 10.0 mi NNW 9.2 mph - N/A   Mostly Cloudy
7:35 PM 64.4 °F 60.8 °F 88% 29.73 in 9.0 mi NNW 10.4 mph - N/A   Mostly Cloudy
7:55 PM 62.6 °F 60.8 °F 94% 29.74 in 10.0 mi North 6.9 mph - N/A   Mostly Cloudy
8:15 PM 60.8 °F 60.8 °F 100% 29.74 in 10.0 mi NW 6.9 mph - N/A   Mostly Cloudy
8:35 PM 60.8 °F 60.8 °F 100% 29.74 in 10.0 mi NNW 5.8 mph - N/A   Overcast
8:55 PM 60.8 °F 60.8 °F 100% 29.74 in 10.0 mi NNW 5.8 mph - N/A   Overcast
9:15 PM 60.8 °F 60.8 °F 100% 29.74 in 10.0 mi NNW 6.9 mph - N/A   Overcast
9:35 PM 59.0 °F 59.0 °F 100% 29.74 in 10.0 mi North 8.1 mph - N/A   Overcast
9:55 PM 60.8 °F 60.8 °F 100% 29.75 in 10.0 mi North 6.9 mph - N/A   Overcast
10:15 PM 60.8 °F 60.8 °F 100% 29.75 in 10.0 mi North 9.2 mph - N/A   Overcast
10:35 PM 60.8 °F 59.0 °F 94% 29.75 in 10.0 mi North 11.5 mph - N/A   Overcast
10:55 PM 60.8 °F 59.0 °F 94% 29.74 in 10.0 mi North 11.5 mph - N/A   Overcast
11:15 PM 60.8 °F 59.0 °F 94% 29.74 in 10.0 mi NNW 9.2 mph - N/A   Overcast
11:35 PM 59.0 °F 59.0 °F 100% 29.75 in 10.0 mi North 8.1 mph - N/A   Overcast
11:55 PM 59.0 °F 59.0 °F 100% 29.75 in 10.0 mi North 8.1 mph - N/A   Overcast